N5MDT Weather Reports


time (UTC)temp
F
wind
direction
speed
knots
gust
knots
rain 1hr
in
rain 24hr
in
rain mn
in
humidity
%
barometer
mb
20260510153841 79 123 1.7 7.0 0.00 0.00 0.00 83 1015.5
20260510152841 78 102 2.6 8.7 0.00 0.00 0.00 83 1015.7
20260510151840 78 80 0.0 6.1 0.00 0.00 0.00 84 1015.8
20260510150840 77 132 0.9 6.1 0.00 0.00 0.00 85 1015.7
20260510145840 76 90 1.7 5.2 0.00 0.00 0.00 86 1015.8
20260510144840 76 194 0.9 5.2 0.00 0.00 0.00 87 1015.7
20260510143840 76 162 1.7 3.5 0.00 0.00 0.00 87 1015.6
20260510142845 76 79 0.0 0.9 0.00 0.00 0.00 87 1016.0
20260510141840 76 96 0.0 5.2 0.00 0.00 0.00 88 1016.2
20260510140840 75 43 0.0 2.6 0.00 0.00 0.00 88 1016.3
20260510135840 75 80 0.0 2.6 0.00 0.00 0.00 89 1016.2
20260510134839 75 54 0.0 0.9 0.00 0.00 0.00 89 1016.3
20260510133840 75 54 0.0 1.7 0.00 0.00 0.00 89 1016.3
20260510132839 75 62 0.0 0.9 0.00 0.00 0.00 89 1016.3
20260510131839 74 62 0.0 1.7 0.00 0.00 0.00 89 1015.9
20260510130839 74 67 0.0 0.0 0.00 0.00 0.00 89 1016.1
20260510125839 74 96 0.0 0.0 0.00 0.00 0.00 89 1015.6
20260510124839 74 96 0.0 0.0 0.00 0.00 0.00 89 1015.4
20260510123839 74 96 0.0 0.0 0.00 0.00 0.00 89 1015.1
20260510122839 74 96 0.0 0.0 0.00 0.00 0.00 89 1014.8
20260510121838 73 96 0.0 0.0 0.00 0.00 0.00 88 1014.6
20260510120838 73 96 0.0 1.7 0.00 0.00 0.00 88 1014.3
20260510115839 73 96 0.0 0.9 0.00 0.00 0.00 88 1014.0
20260510114838 73 96 0.0 1.7 0.00 0.00 0.00 88 1013.9
20260510113838 73 96 0.0 0.0 0.00 0.00 0.00 88 1013.8
20260510112838 73 96 0.0 0.0 0.00 0.00 0.00 88 1013.6
20260510111838 73 96 0.0 0.0 0.00 0.00 0.00 88 1013.5
20260510110853 73 96 0.0 0.0 0.00 0.00 0.00 88 1013.5
20260510105838 73 96 0.0 0.9 0.00 0.00 0.00 88 1013.2
20260510104838 73 96 0.0 3.5 0.00 0.00 0.00 88 1013.0
20260510103838 73 94 2.6 2.6 0.00 0.00 0.00 88 1012.8
20260510102838 73 105 0.0 0.0 0.00 0.00 0.00 87 1012.6
20260510101837 72 91 0.0 0.0 0.00 0.00 0.00 87 1012.3
20260510100853 72 103 0.0 0.0 0.00 0.00 0.00 87 1012.2
20260510095837 72 103 0.0 0.9 0.00 0.00 0.00 86 1012.1
20260510094838 72 103 0.0 1.7 0.00 0.00 0.00 86 1011.9
20260510093837 72 109 1.7 2.6 0.00 0.00 0.00 86 1011.9
20260510092837 73 119 0.0 0.0 0.00 0.00 0.00 86 1011.9
20260510091837 73 119 0.0 0.0 0.00 0.00 0.00 86 1011.8
20260510090852 73 119 0.0 1.7 0.00 0.00 0.00 86 1011.8
20260510085837 73 90 0.0 3.5 0.00 0.00 0.00 86 1011.7
20260510084837 73 101 1.7 1.7 0.00 0.00 0.00 86 1011.6
20260510083837 73 127 0.0 1.7 0.00 0.00 0.00 85 1011.5
20260510082837 73 172 0.9 3.5 0.00 0.00 0.00 85 1011.6
20260510081837 73 124 0.9 3.5 0.00 0.00 0.00 85 1011.9
20260510080836 73 146 0.0 0.0 0.00 0.00 0.00 85 1011.9
20260510075837 73 146 0.0 0.0 0.00 0.00 0.00 84 1011.9
20260510074837 73 146 0.0 3.5 0.00 0.00 0.00 85 1012.0
20260510073836 73 103 0.0 0.0 0.00 0.00 0.00 84 1011.9
20260510072836 73 103 0.0 1.7 0.00 0.00 0.00 84 1011.9
20260510071836 73 125 0.0 2.6 0.00 0.00 0.00 84 1011.9
20260510070836 74 134 0.9 3.5 0.00 0.00 0.00 83 1011.9
20260510065836 74 157 0.0 1.7 0.00 0.00 0.00 83 1012.1
20260510064836 74 94 0.9 2.6 0.00 0.00 0.00 83 1012.1
20260510063836 74 115 0.0 4.3 0.00 0.00 0.00 83 1012.1
20260510062835 74 159 0.0 4.3 0.00 0.00 0.00 83 1012.3
20260510061836 74 199 1.7 4.3 0.00 0.00 0.00 82 1012.4
20260510060835 74 132 1.7 6.1 0.00 0.00 0.00 82 1012.4
20260510055836 74 163 0.9 6.1 0.00 0.00 0.00 81 1012.4
20260510054835 75 69 1.7 3.5 0.00 0.00 0.00 81 1012.5
20260510053835 75 104 0.0 0.9 0.00 0.00 0.00 81 1012.7
20260510052835 75 104 0.0 6.1 0.00 0.00 0.00 80 1012.6
20260510051835 75 92 1.7 6.1 0.00 0.00 0.00 80 1012.7
20260510050835 75 75 0.9 9.6 0.00 0.00 0.00 79 1012.5
20260510045835 75 87 1.7 6.1 0.00 0.00 0.00 79 1012.6
20260510044835 75 90 1.7 8.7 0.00 0.00 0.00 78 1012.6
20260510043835 75 130 2.6 3.5 0.00 0.00 0.00 77 1012.8
20260510042824 75 93 7.0 7.0 0.00 0.00 0.00 77 1012.7
20260510041824 75 178 3.5 7.8 0.00 0.00 0.00 77 1012.5
20260510040824 76 186 3.5 7.0 0.00 0.00 0.00 76 1012.5
20260510035824 76 92 0.9 7.8 0.00 0.00 0.00 76 1012.4
20260510034823 76 102 3.5 10.4 0.00 0.00 0.00 76 1012.6
20260510033853 76 152 3.5 7.0 0.00 0.00 0.00 76 1012.5
20260510032823 77 69 4.3 9.6 0.00 0.00 0.00 75 1012.6
20260510031823 78 178 2.6 10.4 0.00 0.00 0.00 75 1012.8
20260510030823 78 84 2.6 10.4 0.00 0.00 0.00 73 1012.4
20260510025823 80 105 7.8 15.6 0.00 0.00 0.00 72 1012.4
20260510024838 81 74 12.2 15.6 0.00 0.00 0.00 72 1012.3
20260510023853 83 97 2.6 2.6 0.00 0.00 0.00 74 1011.8
20260510022823 83 89 0.0 2.6 0.00 0.00 0.00 73 1011.0
20260510021823 83 136 0.9 6.1 0.00 0.00 0.00 73 1010.8
20260510020823 83 106 0.0 3.5 0.00 0.00 0.00 74 1010.8
20260510015823 84 152 0.0 0.0 0.00 0.00 0.00 74 1010.6
20260510014823 84 152 0.0 0.0 0.00 0.00 0.00 74 1010.4
20260510013822 84 152 0.0 0.0 0.00 0.00 0.00 73 1010.3
20260510012822 85 152 0.0 0.0 0.00 0.00 0.00 72 1010.2
20260510011822 86 152 0.0 0.0 0.00 0.00 0.00 72 1009.9
20260510010908 87 152 0.0 0.0 0.00 0.00 0.00 70 1009.8
20260510005822 88 152 0.0 0.0 0.00 0.00 0.00 70 1009.6
20260510004822 89 152 0.0 0.0 0.00 0.00 0.00 69 1009.4
20260510003852 89 152 0.0 0.0 0.00 0.00 0.00 67 1009.3
20260510002907 89 152 0.0 0.0 0.00 0.00 0.00 68 1009.3
20260510001852 90 152 0.0 0.0 0.00 0.00 0.00 67 1009.2
20260510000822 90 152 0.0 2.6 0.00 0.00 0.00 66 1009.0
20260509235821 90 107 0.9 1.7 0.00 0.00 0.00 64 1008.8
20260509234851 91 107 0.0 1.7 0.00 0.00 0.00 65 1008.8
20260509233852 92 107 0.0 0.9 0.00 0.00 0.00 64 1009.0
20260509232821 93 107 0.9 1.7 0.00 0.00 0.00 62 1009.1
20260509231821 94 117 0.0 2.6 0.00 0.00 0.00 62 1009.1
20260509230821 94 174 0.0 1.7 0.00 0.00 0.00 62 1009.0
20260509225821 94 113 0.0 0.0 0.00 0.00 0.00 63 1009.0
20260509224821 93 61 0.0 0.0 0.00 0.00 0.00 63 1009.0
20260509223821 94 61 0.0 0.9 0.00 0.00 0.00 62 1009.0
20260509222821 94 61 0.0 0.9 0.00 0.00 0.00 63 1008.8
20260509221821 93 61 0.0 0.0 0.00 0.00 0.00 64 1008.9
20260509220850 93 61 0.0 0.0 0.00 0.00 0.00 64 1008.9
20260509215850 92 61 0.0 0.0 0.00 0.00 0.00 66 1009.1
20260509214850 93 51 0.0 0.0 0.00 0.00 0.00 66 1009.0
20260509213906 92 60 0.0 0.9 0.00 0.00 0.00 66 1008.9
20260509212820 92 113 0.9 0.9 0.00 0.00 0.00 66 1009.0
20260509211850 92 113 0.0 0.9 0.00 0.00 0.00 64 1009.0
20260509210820 93 113 0.0 0.9 0.00 0.00 0.00 62 1009.0
20260509205820 92 113 0.9 3.5 0.00 0.00 0.00 61 1009.2
20260509204820 92 288 0.0 1.7 0.00 0.00 0.00 62 1009.4
20260509203819 92 167 0.0 3.5 0.00 0.00 0.00 70 1009.6
20260509202820 90 193 0.0 2.6 0.00 0.00 0.00 72 1009.7
20260509201850 89 5 0.0 0.0 0.00 0.00 0.00 74 1009.7
20260509200819 88 50 0.0 0.0 0.00 0.00 0.00 75 1009.7
20260509195819 87 64 0.0 0.0 0.00 0.00 0.00 77 1009.8
20260509194819 86 64 0.0 0.0 0.00 0.00 0.00 78 1010.0
20260509193849 86 67 0.0 0.0 0.00 0.00 0.00 79 1010.2
20260509192849 87 147 0.0 0.0 0.00 0.00 0.00 75 1010.2
20260509191819 87 147 0.0 2.6 0.00 0.00 0.00 72 1010.2
20260509190819 87 138 0.0 0.0 0.00 0.00 0.00 75 1010.3
20260509185849 86 167 0.0 3.5 0.00 0.00 0.00 76 1010.6
20260509184819 85 164 0.0 3.5 0.00 0.00 0.00 76 1010.7
20260509183849 85 279 0.0 0.0 0.00 0.00 0.00 76 1010.9
20260509182819 85 169 0.0 0.0 0.00 0.00 0.00 78 1011.0
20260509181818 84 169 0.0 0.0 0.00 0.00 0.00 78 1011.0
20260509180818 84 197 0.0 0.0 0.00 0.00 0.00 80 1011.2
20260509175818 83 117 0.0 0.0 0.00 0.00 0.00 79 1011.3
20260509174848 83 311 0.0 0.0 0.00 0.00 0.00 80 1011.4
20260509173848 83 121 0.0 0.0 0.00 0.00 0.00 81 1011.3
20260509172818 82 121 0.0 3.5 0.00 0.00 0.00 81 1011.3
20260509171848 82 157 2.6 6.1 0.00 0.00 0.00 83 1011.2
20260509170818 81 156 0.0 0.0 0.00 0.00 0.00 82 1011.3
20260509165818 81 313 0.0 0.0 0.00 0.00 0.00 83 1011.4
20260509164818 81 312 0.0 0.0 0.00 0.00 0.00 83 1011.6
20260509163847 81 293 0.0 0.0 0.00 0.00 0.00 84 1011.5
20260509162817 80 278 0.0 0.0 0.00 0.00 0.00 85 1011.6
20260509161817 80 168 0.0 0.0 0.00 0.00 0.00 86 1011.7
20260509160817 79 118 0.0 0.0 0.00 0.00 0.00 86 1011.9
20260509155817 79 118 0.0 0.0 0.00 0.00 0.00 88 1011.7
20260509154817 78 102 0.0 0.0 0.00 0.00 0.00 87 1011.8